, AK

(GMT )
Portage Glacier

Weather History for PATO - September, 2013

Change the Weather History Date:

Wednesday, September 11, 2013

  Actual Average Record
Temperature  
Mean Temperature 52 °F -  
Max Temperature 55 °F - - ()
Min Temperature 48 °F - - ()
Degree Days  
Heating Degree Days 14    
Growing Degree Days 2 (Base 50)    
Moisture  
Dew Point 48 °F    
Average Humidity 92    
Maximum Humidity 100    
Minimum Humidity 74    
Precipitation  
Precipitation 1.63 in - - ()
Sea Level Pressure  
Sea Level Pressure 29.74 in    
Wind  
Wind Speed 9 mph (SE)    
Max Wind Speed 20 mph    
Max Gust Speed 33 mph    
Visibility 6 miles    
Events Rain    
Averages and records for this station are not official NWS values.
T = Trace of Precipitation, MM = Missing Value Source: NWS Daily Summary

Daily Weather History Graph

Daily Weather History Graph

Search for Another Location

Airport or City:

Astronomy

Sep. 11, 2013 Rise Set
Actual Time 7:13 AM AKDT 8:28 PM AKDT
Civil Twilight 6:29 AM AKDT 9:11 PM AKDT
Nautical Twilight 5:34 AM AKDT 10:06 PM AKDT
Astronomical Twilight 4:29 AM AKDT 11:10 PM AKDT
Moon 3:41 PM AKDT (9/11) 10:43 PM AKDT (9/11)
Length of Visible Light 14h 42m
Length of Day
13h 14m
Waxing Crescent, 40% of the Moon is Illuminated
Sep 11
Waxing Crescent
Sep 12
First Quarter
Sep 19
Full
Sep 26
Last Quarter
Oct 4
New

Hourly Weather History & Observations

Time (AKDT) Temp. Dew Point Humidity Pressure Visibility Wind Dir Wind Speed Gust Speed Precip Events Conditions
12:00 AM 52.0 °F 50.0 °F 93% 29.73 in 4.0 mi SSE 10.4 mph 27.6 mph 0.02 in Rain Rain
12:53 AM 53.1 °F 50.0 °F 89% 29.73 in 4.0 mi ESE 13.8 mph 29.9 mph 0.20 in Rain Heavy Rain
1:24 AM 52.0 °F 48.9 °F 89% 29.71 in 4.0 mi SE 13.8 mph 28.8 mph 0.11 in Rain Rain
1:36 AM 53.1 °F 48.9 °F 86% 29.70 in 4.0 mi ESE 13.8 mph 26.5 mph 0.15 in Rain Rain
1:53 AM 52.0 °F 48.9 °F 89% 29.71 in 4.0 mi SE 16.1 mph 27.6 mph 0.20 in Rain Rain
2:33 AM 52.0 °F 48.9 °F 89% 29.68 in 4.0 mi SE 12.7 mph 27.6 mph 0.15 in Rain Rain
2:53 AM 54.0 °F 48.0 °F 80% 29.68 in 4.0 mi ENE 19.6 mph 33.4 mph 0.22 in Rain Rain
3:53 AM 51.1 °F 48.9 °F 92% 29.64 in 4.0 mi SE 9.2 mph 24.2 mph 0.18 in Rain Rain
4:53 AM 50.0 °F 48.9 °F 96% 29.62 in 4.0 mi SSE 8.1 mph 19.6 mph 0.15 in Rain Rain
5:53 AM 50.0 °F 48.0 °F 93% 29.60 in 6.0 mi Variable 5.8 mph - 0.13 in Rain Rain
6:53 AM 50.0 °F 48.0 °F 93% 29.59 in 6.0 mi SE 6.9 mph - 0.08 in Rain Rain
7:53 AM 48.0 °F 46.9 °F 96% 29.59 in 3.0 mi ENE 6.9 mph - 0.05 in Rain Light Rain
8:04 AM 48.0 °F 48.0 °F 100% 29.59 in 2.5 mi Variable 3.5 mph - 0.01 in Rain Light Rain
8:15 AM 48.9 °F 48.9 °F 100% 29.59 in 2.5 mi Calm Calm - 0.02 in Rain Light Rain
8:51 AM 48.2 °F 48.2 °F 100% 29.60 in 1.2 mi West 5.8 mph - 0.07 in Rain Rain
8:53 AM 48.9 °F 48.9 °F 100% 29.60 in 1.2 mi West 6.9 mph - 0.08 in Rain Rain
9:29 AM 48.9 °F 48.9 °F 100% 29.62 in 1.8 mi West 8.1 mph - 0.15 in Rain Rain
9:39 AM 48.9 °F 48.9 °F 100% 29.63 in 2.0 mi West 4.6 mph - 0.18 in Rain Rain
9:53 AM 48.9 °F 48.9 °F 100% 29.63 in 2.5 mi West 4.6 mph - 0.22 in Rain Rain
10:05 AM 48.9 °F 48.9 °F 100% 29.64 in 3.0 mi West 5.8 mph - 0.02 in Rain Rain
10:53 AM 50.0 °F 50.0 °F 100% 29.67 in 8.0 mi West 5.8 mph - 0.08 in Rain Light Rain
11:07 AM 50.0 °F 50.0 °F 100% 29.67 in 6.0 mi West 6.9 mph - 0.01 in Rain Light Rain
11:53 AM 50.0 °F 50.0 °F 100% 29.71 in 7.0 mi WNW 6.9 mph - 0.02 in Rain Light Rain
12:14 PM 52.0 °F 51.1 °F 97% 29.72 in 10.0 mi West 5.8 mph - 0.00 in Rain Light Rain
12:53 PM 53.1 °F 51.1 °F 93% 29.74 in 10.0 mi Variable 3.5 mph - 0.00 in   Overcast
1:53 PM 51.1 °F 46.0 °F 83% 29.77 in 10.0 mi East 3.5 mph - N/A   Overcast
2:53 PM 50.0 °F 46.0 °F 86% 29.80 in 10.0 mi Calm Calm - N/A   Overcast
3:53 PM 50.0 °F 44.1 °F 80% 29.81 in 10.0 mi ESE 5.8 mph - N/A   Overcast
4:53 PM 52.0 °F 46.0 °F 80% 29.83 in 10.0 mi SE 5.8 mph - N/A   Overcast
5:53 PM 55.0 °F 46.9 °F 74% 29.84 in 10.0 mi ESE 8.1 mph - N/A   Overcast
6:53 PM 54.0 °F 46.9 °F 77% 29.86 in 10.0 mi Variable 5.8 mph - N/A   Overcast
7:53 PM 53.1 °F 46.9 °F 80% 29.88 in 10.0 mi SE 9.2 mph - N/A   Overcast
8:53 PM 52.0 °F 46.9 °F 83% 29.90 in 10.0 mi SE 6.9 mph - N/A   Overcast
9:18 PM 52.0 °F 48.0 °F 86% 29.91 in 10.0 mi SE 8.1 mph - 0.00 in   Overcast
9:53 PM 50.0 °F 48.0 °F 93% 29.93 in 6.0 mi ESE 6.9 mph - 0.00 in Rain Light Rain
10:53 PM 50.0 °F 48.0 °F 93% 29.94 in 10.0 mi East 4.6 mph - 0.02 in   Overcast
11:11 PM 50.0 °F 48.9 °F 96% 29.95 in 10.0 mi SE 5.8 mph - 0.00 in Rain Light Rain
11:31 PM 50.0 °F 48.9 °F 96% 29.95 in 10.0 mi Variable 3.5 mph - 0.00 in Rain Light Rain
11:53 PM 51.1 °F 48.9 °F 92% 29.96 in 8.0 mi SE 5.8 mph - 0.00 in Rain Light Rain